Temperature
20 20 20 20 18 16 18 19 19 19 19 19 19 18 18 17 18 17 17 17 17 17 17 17 17 17 17 17 17 17 17 17 17 17 17 17 17 17 17 17 17 17 17 17 17 17 17 17 17
21 21 20 20 16 17 18 19 19 19 19 19 19 18 18 17 17 17 17 17 17 17 17 17 17 17 17 17 17 17 17 17 17 17 17 17 17 17 17 17 17 17 17 17 17 17 17 17 17
21 20 20 16 17 17 19 19 19 19 20 19 18 18 18 17 17 18 17 17 17 17 17 17 17 17 17 17 17 17 17 17 17 17 17 17 17 17 17 17 17 17 17 17 17 17 17 17 17
21 20 20 17 18 18 19 19 19 19 20 19 18 17 17 18 18 18 17 17 17 17 17 17 17 17 17 17 17 17 17 17 17 17 17 17 17 17 17 17 17 17 17 17 17 17 17 17 17
21 20 17 17 18 19 19 19 20 19 19 19 18 17 17 18 18 18 17 17 17 17 17 17 17 17 17 17 17 17 17 17 17 17 17 17 17 17 17 17 17 17 17 17 17 17 17 17 17
21 18 17 18 19 19 19 20 20 19 19 19 18 17 17 18 18 18 17 17 17 17 17 17 17 17 17 17 17 16 16 17 16 17 16 17 16 16 17 16 16 16 16 16 16 16 16 16 16
19 16 17 18 18 19 20 20 20 19 19 19 19 17 17 18 18 17 17 17 17 17 17 17 16 16 16 16 16 16 16 16 16 16 16 16 16 16 16 16 16 16 16 16 16 16 16 16 16
20 16 18 18 18 19 20 20 20 20 19 19 19 18 17 18 17 17 17 17 17 17 17 17 16 16 16 16 16 16 16 16 16 16 16 16 16 16 16 16 16 16 16 16 16 16 16 16 16
20 16 17 18 18 19 20 20 20 20 19 19 19 19 19 18 18 17 17 17 17 17 17 16 16 16 16 16 16 16 16 16 16 16 16 16 16 16 16 16 16 16 16 16 16 16 16 16 16
20 17 19 19 19 19 20 20 20 19 19 18 19 19 19 18 18 17 17 17 17 17 17 16 16 16 16 16 16 16 16 16 16 16 16 16 16 16 16 16 16 16 16 16 16 16 16 16 16
19 18 19 20 20 20 20 20 20 19 18 19 19 19 18 18 18 17 17 17 17 17 17 16 16 16 16 16 16 16 16 16 16 16 16 16 16 16 16 16 15 15 16 16 15 16 16 16 15
19 19 20 20 21 21 20 20 19 19 20 20 20 20 19 18 18 18 17 17 17 17 17 16 16 16 16 16 16 16 16 16 16 16 15 15 15 15 15 15 15 15 15 15 15 15 15 15 15
19 19 20 21 21 21 20 20 19 19 20 20 20 19 19 18 18 18 17 17 17 17 17 17 16 16 16 16 16 16 16 16 16 15 15 15 15 15 15 15 15 15 15 15 15 15 15 15 15
19 20 20 20 21 20 20 19 19 19 20 20 19 19 18 18 18 18 17 17 17 17 17 17 16 16 16 16 16 16 16 16 15 15 15 15 15 15 15 15 15 15 15 15 15 15 15 15 15
20 19 19 19 20 20 20 19 18 19 19 19 19 18 18 18 18 18 18 17 17 17 17 17 16 16 16 16 16 16 16 16 15 15 15 15 15 15 15 15 15 15 15 15 15 15 15 15 14
19 18 18 19 19 20 19 18 18 19 19 18 18 18 18 18 18 18 18 17 17 17 17 17 16 16 16 16 16 16 15 15 15 15 15 15 14 14 14 14 14 14 14 14 14 14 14 14 14
17 17 18 18 19 19 19 18 18 19 18 18 18 18 18 18 18 18 18 17 17 17 17 17 16 16 16 16 16 15 15 15 15 15 15 14 14 14 14 14 14 14 14 14 14 14 14 14 14
18 17 18 18 19 18 18 17 17 18 18 18 18 18 18 18 18 18 18 17 17 17 17 17 16 16 16 16 15 15 15 15 15 15 15 14 14 14 14 14 14 14 14 14 14 14 14 14 14
18 18 18 18 19 18 18 17 17 17 17 17 17 17 18 18 18 18 18 17 17 17 17 17 16 16 16 16 16 15 15 15 15 15 15 14 14 14 14 14 14 14 14 14 14 14 13 13 13
18 18 18 18 18 18 17 17 17 17 17 17 17 17 18 18 18 17 17 17 17 17 17 17 16 16 16 16 16 15 15 15 15 15 15 14 14 14 14 14 14 14 13 13 13 13 13 13 13
18 18 18 18 18 17 18 17 17 17 17 17 17 17 18 17 18 18 18 17 17 17 17 17 16 16 16 16 16 15 15 15 15 15 15 14 14 14 14 14 14 13 13 13 13 13 13 13 13
18 18 18 18 17 16 17 16 16 16 16 16 16 17 17 17 18 18 18 17 17 17 17 17 16 16 16 16 15 15 15 15 15 15 14 14 14 14 14 14 13 13 13 13 13 13 13 13 13
18 18 17 17 17 16 16 16 15 15 16 16 16 16 17 17 17 18 18 18 18 17 17 17 16 16 16 16 15 15 15 15 15 15 14 14 14 14 14 13 13 13 13 13 13 13 12 12 12
17 16 16 14 15 15 16 16 15 14 16 16 15 16 16 17 17 17 17 17 17 17 17 16 16 16 16 16 15 15 15 15 15 15 14 14 14 14 14 13 13 13 13 13 13 13 12 12 12
16 15 15 15 14 15 15 15 15 16 15 15 15 16 16 17 17 17 17 17 17 17 16 16 16 16 16 16 15 15 15 15 14 14 14 14 14 14 14 13 13 13 13 13 12 12 12 12 12
16 16 15 15 15 14 15 15 15 15 15 16 16 16 16 16 17 17 17 17 17 17 16 16 16 16 15 15 15 15 15 15 14 14 14 14 14 13 13 13 13 13 13 12 12 12 12 12 12
16 15 15 14 14 14 14 14 15 15 15 15 15 15 16 16 16 17 17 17 17 16 16 16 16 15 15 15 15 14 14 14 14 14 14 14 13 13 13 13 13 13 12 12 12 12 12 12 12
16 14 13 14 14 14 15 15 15 15 14 14 14 15 16 16 16 16 16 16 16 16 16 16 15 15 15 15 14 14 14 14 14 14 14 13 13 13 13 13 13 12 12 12 12 12 12 12 12
15 15 13 12 13 13 14 14 15 14 14 14 14 15 16 16 16 16 16 16 16 16 16 15 15 15 15 14 14 14 14 14 14 13 13 13 13 13 13 12 12 12 12 12 12 12 12 12 12
16 15 13 14 13 12 13 14 15 14 14 14 14 15 16 16 16 16 16 16 16 16 15 15 15 15 14 14 14 14 14 13 13 13 13 13 13 12 12 12 12 12 12 12 12 11 11 11 11
Wind_Speed
3 5 3 4 6 6 3 2 0 2 2 2 3 5 6 4 3 3 0 3 3 2 2 4 5 7 7 8 9 10 10 10 11 11 11 11 11 11 11 11 11 11 11 10 10 10 10 10 10
2 3 4 5 5 4 2 2 1 1 4 4 4 5 5 4 2 3 1 2 4 3 3 4 6 7 7 8 9 9 10 11 11 11 11 11 11 11 11 11 11 10 10 10 10 9 10 9 9
2 3 4 4 4 4 2 0 2 3 3 2 4 4 4 2 2 2 2 4 4 4 4 4 7 7 8 8 9 9 10 10 10 11 11 11 11 11 11 11 11 10 10 10 10 10 10 9 10
3 4 5 5 4 1 2 2 3 4 4 4 4 4 3 2 2 3 5 5 5 4 4 4 7 7 8 8 9 9 9 10 10 10 10 10 11 11 11 11 11 11 11 11 10 10 10 10 10
4 4 5 4 2 1 0 1 1 3 3 3 4 4 2 4 4 6 6 5 5 3 4 4 6 7 8 8 9 9 9 9 9 9 10 10 10 11 11 11 11 12 12 12 11 10 11 11 11
4 4 5 3 1 2 1 1 3 3 3 3 4 4 1 2 4 5 6 5 4 4 4 4 6 7 7 8 9 9 9 9 9 9 9 9 10 10 10 11 11 11 11 12 11 11 11 10 10
4 4 4 3 2 1 0 2 3 4 4 3 4 4 1 1 3 5 5 5 5 4 4 4 5 6 7 8 8 8 8 8 8 8 9 9 9 9 10 10 11 11 11 11 11 11 11 10 10
4 5 3 2 3 1 0 2 2 4 3 3 4 6 4 4 5 6 6 5 5 4 3 4 5 6 7 7 8 8 8 7 7 7 8 8 8 8 9 9 9 10 10 11 11 11 11 10 10
4 5 2 3 4 2 1 2 2 3 5 3 2 2 3 9 9 8 5 4 3 3 2 3 4 5 6 6 7 7 7 7 8 7 7 8 7 7 7 8 9 9 10 10 11 11 11 11 10
4 3 3 3 4 3 2 2 3 4 4 3 4 4 7 9 9 8 6 5 3 2 1 2 3 4 5 5 6 7 7 8 8 7 7 7 7 7 7 8 8 9 9 10 11 11 11 10 9
3 4 2 1 3 3 3 2 2 6 2 4 6 7 9 9 8 7 6 5 4 2 2 2 2 3 4 4 5 5 6 6 7 7 7 7 7 7 7 7 7 7 8 8 9 9 8 8 7
3 1 2 1 2 3 3 3 3 3 4 4 7 10 10 10 8 7 6 4 3 3 2 2 3 3 3 4 3 4 4 4 4 5 6 5 4 5 5 5 6 6 6 6 6 6 7 7 7
2 1 1 2 3 3 4 3 2 1 1 6 9 10 9 9 6 5 5 4 4 4 3 2 3 3 3 3 2 3 3 3 3 4 5 5 3 3 3 4 5 5 6 5 5 5 5 6 6
2 2 2 2 2 2 4 1 2 2 4 7 9 8 8 8 7 5 4 4 4 4 3 3 3 3 4 3 2 2 2 3 3 3 3 4 4 3 3 3 3 4 5 5 4 4 4 4 5
3 4 5 3 1 1 4 3 1 3 7 7 7 7 6 6 5 6 6 5 4 4 3 3 4 3 3 3 2 2 2 3 2 2 3 4 4 3 3 3 3 3 4 5 5 5 5 4 5
4 4 1 3 0 1 5 3 4 3 8 6 6 6 6 5 5 5 5 4 4 4 4 3 4 4 3 3 3 2 2 2 2 2 2 3 3 3 3 3 2 3 4 4 3 3 4 4 4
4 1 1 3 1 2 4 4 4 3 7 6 6 6 6 5 4 4 4 5 5 5 5 4 4 4 4 3 3 3 3 2 2 2 2 2 3 3 3 2 2 3 3 3 3 3 3 3 3
3 2 2 3 2 3 3 4 4 3 6 7 6 6 6 6 7 5 5 4 4 4 4 4 4 4 4 3 2 2 2 2 2 1 1 2 2 2 3 2 2 3 3 2 3 3 3 2 2
4 3 3 4 3 3 4 5 6 4 5 6 6 6 7 7 5 3 4 4 4 4 4 5 4 4 4 2 2 2 1 0 0 0 1 1 2 2 3 2 2 2 2 2 2 2 3 2 2
3 2 2 2 1 2 2 3 4 3 5 6 7 7 8 6 3 3 4 4 5 5 5 5 5 5 4 3 2 2 1 1 1 0 1 1 1 2 2 3 2 2 2 2 2 2 2 1 2
2 4 4 2 2 3 2 4 3 3 2 2 3 4 5 7 7 6 6 6 5 5 6 6 5 5 4 4 3 2 2 2 1 1 0 1 1 2 2 2 2 2 2 2 1 1 2 1 2
3 4 3 2 2 2 1 3 6 4 3 2 3 3 4 4 5 5 6 6 6 7 6 6 6 5 4 5 4 4 3 2 2 1 1 1 0 1 2 2 2 2 1 1 1 1 1 2 0
3 1 2 2 3 0 1 2 7 2 3 5 4 3 4 4 5 5 6 6 6 6 6 6 5 5 5 5 5 4 2 1 1 0 0 1 1 0 1 2 2 2 1 1 1 1 1 1 2
3 5 5 5 4 1 4 4 6 3 5 4 3 2 3 3 3 3 2 3 3 4 4 4 5 4 5 5 5 5 4 3 2 1 1 1 1 1 1 1 2 2 1 1 1 1 2 1 1
5 5 3 3 2 5 3 3 6 5 4 5 4 3 2 2 2 2 2 3 3 3 4 4 5 4 4 5 5 5 5 5 4 3 3 1 1 1 2 1 1 1 2 2 2 1 1 2 2
3 6 6 4 4 4 1 4 5 3 2 1 2 2 2 1 1 2 2 3 4 4 4 4 5 4 4 5 4 4 4 3 3 3 3 3 2 2 2 1 1 1 2 2 1 1 1 1 2
4 3 5 5 2 2 4 5 5 2 3 3 3 3 2 1 1 2 1 2 3 4 4 5 5 4 4 5 4 3 3 3 3 2 2 2 2 2 1 1 1 1 1 1 1 1 1 1 2
4 7 5 4 2 3 5 4 4 3 2 0 1 1 1 1 1 0 1 1 2 3 3 4 5 5 4 4 4 4 3 3 3 2 2 2 1 1 1 1 1 0 0 1 1 1 1 1 2
3 3 4 4 4 4 3 6 4 6 5 5 4 3 3 3 3 2 1 1 1 1 2 3 3 3 3 3 3 3 3 3 3 2 2 2 1 1 1 1 1 1 1 1 1 1 1 2 2
3 5 6 4 3 4 3 6 4 4 4 4 4 3 3 2 2 1 1 0 1 1 1 2 2 3 3 3 3 3 3 3 3 3 2 2 2 1 1 1 1 1 1 1 1 2 2 2 2
Wind_Direction
86 95 85 61 57 54 47 348 84 67 54 40 59 79 94 86 92 127 312 119 113 107 82 95 93 92 89 87 87 88 85 85 87 90 89 86 83 80 77 76 78 78 77 78 82 87 88 86 84
98 97 59 61 81 78 3 335 86 124 147 129 71 72 74 70 70 107 102 132 118 110 88 98 99 94 91 91 91 89 88 87 88 88 87 84 81 79 76 74 76 76 76 77 80 85 88 88 85
106 61 77 71 87 134 149 239 119 80 111 99 74 61 80 98 119 144 167 137 110 96 84 94 103 99 95 94 91 90 89 88 88 88 87 84 80 78 76 73 74 74 76 77 79 83 85 87 85
85 48 57 70 78 197 182 180 135 113 80 60 92 69 59 31 146 148 131 125 109 93 87 91 101 98 95 94 91 91 90 89 89 87 87 84 79 76 73 71 71 71 72 75 79 81 84 85 84
62 75 65 60 43 349 327 196 138 98 79 65 89 88 40 1 86 116 123 122 117 101 84 87 97 94 91 92 93 91 89 88 88 87 85 82 79 75 72 70 69 68 68 71 75 79 83 85 84
57 67 84 96 39 7 360 42 95 86 96 99 99 100 48 40 111 127 124 120 116 105 84 83 97 92 92 93 94 92 89 87 86 84 83 82 78 75 70 68 67 65 64 67 71 74 80 80 82
101 92 112 128 104 27 87 98 115 117 113 141 130 113 115 156 141 125 113 106 96 90 80 63 76 87 90 94 94 92 89 86 85 83 80 79 75 72 69 67 67 65 64 64 66 70 75 76 78
117 101 90 116 140 191 158 94 102 119 126 120 121 137 183 186 140 109 96 89 89 82 71 64 66 72 74 80 91 90 86 82 80 78 76 74 68 66 65 64 64 66 64 63 63 69 67 70 75
90 79 131 187 172 186 147 96 70 74 98 84 84 145 157 134 124 113 102 86 93 100 69 64 68 67 69 74 83 81 78 73 70 66 68 61 51 50 52 57 61 64 63 61 60 62 64 65 67
87 117 192 202 180 166 143 114 123 94 83 79 65 69 106 122 131 136 140 145 147 148 123 80 80 73 69 73 70 67 65 64 59 57 55 52 48 43 45 49 54 57 59 57 57 60 60 59 57
110 154 185 173 166 144 126 95 105 125 147 188 165 145 132 135 141 148 155 157 165 156 134 116 102 88 80 72 71 63 60 60 55 52 50 51 49 43 40 39 40 45 50 49 48 54 57 61 62
103 69 149 145 129 122 132 122 102 151 203 191 159 145 144 151 160 168 167 163 148 137 147 130 120 103 91 82 73 68 62 59 53 50 50 52 48 44 41 41 40 46 50 50 47 52 54 60 64
93 38 37 83 77 108 105 102 127 209 114 107 121 134 149 159 166 166 159 153 146 154 155 145 129 122 109 92 85 77 64 64 60 54 50 60 64 58 51 49 46 46 50 52 49 50 55 58 59
136 88 50 44 65 80 111 76 93 241 117 118 133 150 162 166 166 155 153 161 171 172 161 146 137 126 110 104 97 84 75 72 64 49 44 64 75 75 67 60 52 47 47 54 61 61 64 62 60
89 67 24 7 53 115 101 10 235 196 130 138 154 164 167 173 168 176 181 179 180 171 154 153 149 117 114 115 110 90 80 86 71 46 41 58 71 77 81 71 56 46 54 62 65 62 65 64 57
67 66 22 303 73 143 122 241 265 167 147 166 175 177 180 189 192 194 183 174 168 156 151 158 155 133 128 119 109 94 87 93 84 75 64 67 75 86 88 82 63 54 66 69 70 55 58 54 51
46 110 226 290 245 136 149 223 250 169 161 185 192 192 195 200 207 204 188 178 172 168 160 153 146 143 142 124 107 97 88 83 83 87 83 83 86 99 102 97 83 80 77 65 66 54 62 60 46
201 194 222 238 246 137 171 232 248 206 184 200 204 203 202 207 218 206 192 180 170 163 157 155 150 148 140 121 102 79 71 62 57 73 99 102 97 114 113 102 88 93 84 60 57 63 50 56 43
161 171 234 247 231 159 203 236 251 226 202 214 215 208 210 217 224 199 187 175 157 155 158 168 163 163 150 134 134 126 171 242 355 11 111 119 118 124 119 108 99 95 96 96 88 83 65 43 25
157 180 245 299 344 156 211 256 259 223 216 217 216 213 212 210 210 203 198 188 180 178 180 179 182 176 173 169 154 147 149 173 210 291 57 123 152 145 142 129 135 123 107 88 81 89 90 43 38
195 193 207 222 3 34 70 323 296 271 242 229 221 217 214 208 209 208 205 203 197 194 192 191 191 181 173 156 123 91 67 50 44 9 303 308 195 157 139 141 137 140 135 149 152 128 124 114 16
237 230 190 162 101 303 104 269 279 266 270 262 250 230 222 218 215 212 208 208 207 205 193 187 185 179 170 157 153 153 159 179 210 219 234 283 268 162 158 155 153 158 155 170 202 140 143 140 150
203 92 119 137 137 42 354 198 281 303 260 260 251 236 232 219 210 209 209 210 208 195 185 184 176 175 174 169 170 165 163 181 179 156 166 261 280 249 179 173 158 164 172 196 183 134 137 152 169
120 66 56 51 79 262 228 190 273 243 229 240 244 243 242 217 207 206 208 194 193 177 174 173 171 181 178 173 173 174 173 168 158 179 189 250 274 275 271 184 162 169 176 199 201 174 164 175 168
79 87 36 1 357 256 240 198 247 256 239 217 220 227 222 194 167 172 178 185 185 171 175 175 175 183 179 174 177 184 186 182 185 192 194 207 235 247 255 221 187 191 197 186 170 165 191 190 180
155 138 158 199 227 279 300 232 256 278 276 193 172 160 128 116 157 176 196 194 187 181 176 171 179 183 178 180 186 190 186 184 193 194 193 203 219 228 233 218 205 214 202 182 157 158 206 187 199
132 149 161 141 173 260 274 282 298 20 45 74 89 99 128 175 190 196 199 185 183 183 184 180 177 181 183 184 178 182 184 187 188 184 180 196 217 219 209 197 195 207 185 164 145 187 235 200 209
141 143 104 122 165 258 285 271 252 260 249 160 122 159 196 201 213 214 212 194 182 189 182 171 172 180 184 179 179 180 183 184 175 155 160 186 204 190 158 158 163 137 113 148 144 204 242 213 233
90 100 113 123 153 171 259 272 226 208 204 203 215 210 193 199 210 220 230 215 154 128 137 154 164 165 166 174 176 170 175 171 159 167 188 194 186 169 176 195 187 184 213 213 178 217 216 219 250
175 170 149 162 214 184 200 265 280 221 219 209 224 230 203 194 210 222 213 87 111 109 110 161 167 167 173 171 168 174 172 165 168 188 205 199 190 193 199 193 189 209 213 215 213 231 228 218 237
Height
1498 1498 1499 1501 1505 1517 1520 1516 1513 1512 1512 1512 1512 1512 1514 1517 1520 1526 1522 1520 1520 1520 1520 1521 1521 1521 1521 1521 1521 1521 1521 1520 1520 1520 1520 1521 1521 1521 1521 1521 1521 1520 1521 1521 1521 1521 1522 1522 1522
1499 1499 1501 1502 1513 1527 1524 1515 1513 1512 1512 1513 1513 1514 1515 1518 1519 1520 1520 1520 1521 1521 1521 1522 1522 1522 1522 1522 1522 1522 1522 1522 1522 1522 1522 1522 1522 1522 1522 1522 1522 1522 1522 1522 1522 1522 1523 1523 1523
1500 1501 1503 1506 1517 1524 1521 1514 1513 1512 1513 1513 1515 1516 1518 1519 1520 1520 1521 1521 1522 1522 1523 1523 1523 1523 1523 1523 1524 1524 1524 1524 1524 1524 1524 1524 1524 1524 1524 1524 1523 1523 1523 1523 1523 1523 1524 1524 1525
1501 1503 1505 1512 1519 1517 1515 1513 1512 1513 1514 1514 1515 1518 1519 1521 1521 1522 1522 1523 1523 1523 1524 1524 1525 1525 1525 1525 1525 1525 1525 1525 1525 1525 1525 1526 1526 1525 1525 1525 1525 1525 1524 1524 1524 1524 1524 1525 1526
1502 1503 1511 1519 1518 1515 1513 1512 1512 1513 1514 1516 1517 1519 1521 1522 1522 1523 1523 1524 1524 1525 1525 1526 1526 1526 1526 1527 1527 1527 1527 1527 1527 1527 1527 1527 1527 1527 1527 1527 1527 1526 1526 1525 1525 1525 1525 1526 1527
1503 1505 1519 1524 1519 1515 1513 1513 1513 1514 1515 1517 1518 1520 1522 1523 1523 1524 1525 1525 1526 1526 1527 1527 1527 1528 1528 1528 1528 1528 1528 1528 1528 1528 1528 1528 1528 1528 1528 1528 1528 1528 1527 1527 1526 1526 1527 1527 1528
1505 1511 1519 1520 1520 1517 1514 1513 1514 1515 1516 1518 1518 1520 1522 1523 1524 1525 1526 1527 1527 1528 1528 1529 1529 1529 1530 1530 1530 1530 1530 1530 1530 1530 1530 1530 1530 1530 1530 1530 1529 1529 1529 1529 1528 1528 1528 1529 1529
1504 1511 1518 1521 1520 1518 1514 1514 1515 1515 1517 1518 1519 1520 1522 1523 1524 1526 1527 1528 1529 1529 1530 1530 1530 1531 1531 1531 1531 1531 1531 1531 1531 1531 1531 1531 1531 1531 1531 1531 1531 1531 1531 1530 1530 1530 1530 1530 1531
1505 1515 1522 1519 1519 1516 1514 1515 1516 1517 1517 1519 1519 1520 1521 1523 1524 1526 1527 1529 1529 1530 1531 1531 1532 1532 1533 1533 1533 1533 1533 1533 1533 1533 1533 1533 1533 1533 1533 1533 1532 1532 1532 1532 1532 1532 1532 1532 1532
1506 1518 1516 1513 1513 1513 1514 1515 1516 1518 1519 1519 1520 1521 1522 1523 1525 1526 1528 1529 1530 1531 1532 1533 1533 1533 1534 1534 1534 1534 1534 1534 1534 1534 1534 1534 1534 1534 1534 1534 1534 1534 1534 1534 1534 1534 1533 1533 1533
1507 1512 1511 1511 1512 1512 1514 1515 1516 1517 1520 1519 1520 1521 1522 1524 1525 1527 1528 1529 1531 1532 1533 1533 1534 1534 1535 1535 1535 1535 1535 1535 1535 1535 1535 1535 1536 1536 1536 1535 1535 1535 1535 1535 1535 1535 1535 1535 1534
1508 1510 1510 1511 1512 1513 1514 1515 1517 1518 1519 1519 1520 1521 1522 1524 1526 1527 1529 1530 1531 1532 1533 1534 1535 1535 1536 1536 1536 1536 1536 1536 1536 1536 1536 1536 1537 1537 1537 1537 1537 1536 1536 1536 1536 1536 1536 1535 1535
1509 1510 1511 1512 1512 1513 1514 1516 1517 1518 1519 1520 1521 1522 1523 1525 1526 1528 1530 1531 1532 1533 1534 1534 1535 1536 1536 1537 1537 1537 1537 1537 1537 1537 1537 1537 1538 1537 1537 1538 1538 1538 1537 1537 1537 1537 1537 1536 1536
1510 1511 1512 1512 1513 1514 1515 1517 1518 1519 1519 1520 1521 1522 1524 1525 1527 1528 1529 1530 1532 1533 1534 1535 1535 1536 1537 1537 1537 1538 1538 1538 1538 1538 1538 1538 1538 1538 1538 1538 1538 1538 1538 1538 1538 1537 1537 1537 1536
1510 1513 1514 1514 1514 1515 1516 1520 1519 1518 1519 1520 1521 1523 1524 1526 1527 1528 1529 1530 1532 1533 1534 1535 1536 1536 1537 1537 1538 1538 1538 1538 1538 1538 1538 1538 1539 1539 1539 1539 1539 1539 1539 1539 1538 1538 1538 1537 1537
1512 1518 1523 1517 1515 1516 1520 1526 1518 1518 1519 1520 1521 1523 1524 1525 1527 1528 1529 1531 1532 1533 1534 1535 1536 1536 1537 1537 1537 1538 1538 1538 1539 1539 1539 1539 1539 1539 1539 1539 1539 1540 1539 1539 1539 1538 1538 1538 1538
1520 1527 1526 1521 1515 1516 1520 1524 1518 1518 1519 1520 1521 1522 1523 1525 1526 1528 1529 1530 1531 1533 1534 1535 1535 1536 1537 1537 1538 1538 1538 1539 1539 1539 1539 1539 1539 1540 1540 1540 1540 1540 1540 1539 1539 1539 1539 1538 1538
1526 1526 1525 1524 1517 1517 1521 1521 1518 1518 1518 1518 1520 1521 1522 1523 1525 1526 1528 1529 1531 1532 1533 1534 1535 1536 1537 1537 1537 1538 1538 1538 1539 1539 1539 1539 1539 1539 1540 1540 1540 1540 1540 1539 1539 1539 1539 1539 1538
1518 1522 1525 1521 1515 1518 1521 1521 1518 1517 1517 1518 1518 1519 1520 1522 1524 1525 1527 1528 1530 1531 1532 1533 1534 1535 1536 1536 1536 1537 1537 1538 1538 1538 1538 1539 1539 1539 1539 1539 1539 1540 1539 1539 1539 1539 1539 1538 1538
1518 1522 1523 1519 1515 1518 1521 1520 1517 1516 1516 1516 1517 1518 1519 1521 1522 1524 1525 1527 1528 1529 1531 1532 1533 1533 1534 1535 1536 1536 1537 1537 1538 1538 1538 1538 1538 1538 1539 1539 1539 1539 1539 1539 1539 1539 1538 1538 1538
1518 1521 1521 1521 1518 1518 1521 1524 1519 1516 1515 1515 1516 1516 1517 1519 1520 1521 1523 1524 1526 1527 1529 1530 1531 1532 1533 1534 1535 1536 1536 1537 1537 1537 1537 1537 1538 1538 1538 1538 1538 1538 1538 1538 1538 1538 1538 1538 1538
1520 1514 1516 1518 1525 1531 1527 1537 1523 1518 1516 1515 1515 1515 1516 1517 1518 1519 1521 1522 1524 1525 1527 1528 1529 1531 1532 1533 1534 1534 1535 1535 1535 1536 1536 1537 1537 1537 1537 1537 1537 1537 1537 1537 1538 1538 1538 1537 1537
1514 1512 1515 1519 1524 1532 1530 1536 1529 1519 1518 1515 1514 1513 1514 1515 1516 1517 1518 1520 1522 1523 1525 1526 1527 1529 1530 1531 1532 1533 1534 1534 1535 1535 1535 1536 1536 1536 1536 1535 1535 1536 1536 1536 1536 1536 1536 1536 1536
1512 1516 1520 1526 1531 1539 1531 1535 1531 1523 1516 1513 1512 1512 1512 1513 1514 1515 1516 1518 1519 1521 1523 1524 1525 1527 1528 1529 1530 1531 1532 1533 1534 1534 1534 1534 1534 1534 1534 1534 1534 1534 1534 1534 1535 1535 1535 1535 1535
1515 1526 1539 1541 1546 1542 1529 1531 1528 1514 1511 1510 1510 1510 1511 1511 1512 1513 1514 1516 1517 1519 1520 1522 1523 1524 1526 1527 1528 1529 1530 1531 1532 1532 1532 1533 1533 1533 1532 1533 1532 1532 1532 1533 1533 1533 1533 1533 1533
1517 1523 1540 1546 1548 1542 1531 1532 1521 1511 1508 1508 1509 1510 1510 1511 1511 1512 1513 1514 1515 1517 1518 1520 1521 1522 1524 1525 1526 1528 1529 1530 1530 1531 1531 1531 1531 1531 1531 1531 1531 1531 1531 1531 1531 1531 1531 1531 1531
1519 1523 1524 1536 1539 1542 1536 1528 1516 1510 1509 1508 1508 1509 1510 1510 1511 1512 1513 1513 1514 1515 1517 1518 1519 1520 1522 1523 1524 1526 1527 1528 1528 1529 1529 1529 1529 1529 1530 1530 1530 1529 1529 1529 1529 1529 1529 1529 1529
1513 1519 1530 1536 1543 1545 1537 1530 1524 1514 1511 1510 1509 1509 1509 1510 1511 1512 1513 1513 1513 1515 1516 1517 1518 1519 1520 1521 1522 1524 1524 1525 1526 1527 1527 1527 1528 1528 1528 1527 1527 1527 1527 1527 1527 1527 1527 1526 1526
1518 1521 1526 1534 1537 1544 1543 1533 1512 1510 1508 1508 1508 1507 1508 1509 1510 1511 1512 1513 1513 1514 1514 1515 1516 1517 1518 1519 1520 1521 1522 1523 1524 1524 1525 1525 1525 1526 1526 1525 1525 1525 1525 1525 1525 1524 1524 1524 1524
1512 1516 1523 1533 1535 1538 1541 1532 1507 1506 1505 1506 1506 1507 1507 1509 1510 1510 1511 1512 1512 1512 1513 1514 1514 1515 1516 1517 1518 1519 1520 1520 1521 1522 1522 1523 1523 1523 1523 1523 1523 1523 1522 1522 1522 1521 1521 1521 1521